Temperature
18 18 18 18 18 18 18 18 18 18 18 18 17 17 18 18 18 18 18 18 18 18 18 17 18 18 18 17 17 18 18 18 18 18 18 18 18 18 18 18 18 17 17
18 18 17 17 17 17 17 17 17 17 17 17 17 17 17 17 17 17 18 18 18 18 18 18 18 18 18 18 18 18 18 18 18 18 18 18 18 18 18 18 18 17 17
17 17 17 17 17 17 17 17 17 17 17 17 17 17 17 17 17 18 18 18 18 18 18 18 18 18 18 18 18 18 18 18 18 18 18 18 18 18 18 18 18 17 17
17 17 17 17 17 17 17 17 17 17 17 17 16 16 16 17 17 17 18 18 18 18 19 18 18 18 18 17 17 18 18 18 18 18 18 18 18 18 18 18 18 17 17
18 17 17 17 16 16 16 16 16 16 16 16 16 16 16 16 17 17 17 17 17 18 18 18 18 17 17 18 18 17 17 17 18 18 18 18 18 18 18 18 18 18 17
18 17 17 16 16 16 16 16 16 15 15 15 15 15 16 16 16 16 17 17 17 17 17 17 17 17 17 18 18 18 17 17 17 18 18 18 18 18 18 18 18 18 18
17 17 16 16 16 16 16 16 16 16 15 15 15 15 15 16 16 16 16 17 17 17 17 17 16 17 17 17 17 17 17 17 17 17 17 17 17 18 18 18 18 18 17
17 17 16 16 16 16 16 16 16 16 16 15 15 14 15 15 16 16 16 16 17 17 17 17 17 17 17 17 17 17 17 17 17 17 17 17 17 17 18 18 17 17 17
17 17 17 17 17 17 17 17 16 16 16 15 15 14 14 14 14 16 16 16 17 17 17 17 17 17 17 16 16 16 17 16 16 16 17 17 17 17 17 18 17 17 17
18 18 18 17 17 18 18 17 17 16 16 15 15 14 14 14 14 14 16 16 16 16 17 17 17 17 16 16 16 16 16 17 16 16 17 17 17 17 17 17 17 17 17
18 18 18 18 17 17 17 17 17 16 16 15 14 14 14 14 14 14 14 16 16 16 16 16 16 17 17 17 17 16 16 16 16 16 17 17 17 16 16 16 16 17 17
18 18 17 17 17 17 17 17 17 17 16 15 14 14 14 14 14 14 13 14 15 16 16 16 16 16 17 17 17 16 16 17 16 17 16 16 16 16 16 16 16 17 17
17 17 17 17 17 17 17 17 17 17 16 15 14 14 14 13 13 13 13 14 14 15 16 16 16 16 16 17 17 16 16 17 17 17 16 16 16 16 16 16 16 17 17
16 16 16 16 16 15 16 16 16 16 16 15 14 14 13 13 13 13 13 13 13 14 15 16 16 16 16 16 16 16 16 16 17 16 16 16 16 16 16 16 16 17 16
14 14 14 14 14 14 15 15 15 16 15 15 14 13 13 13 13 13 13 13 13 13 14 15 15 15 15 15 15 16 16 16 16 16 16 16 16 16 16 16 16 16 16
13 13 13 13 13 13 14 14 15 15 14 14 14 13 13 13 13 13 14 14 13 13 13 14 14 14 14 15 15 15 15 15 15 15 15 15 15 15 16 16 16 16 15
13 13 13 13 13 13 13 13 14 14 14 14 14 13 13 13 13 13 14 14 14 14 14 14 14 13 13 14 13 13 13 14 14 14 14 14 15 15 15 15 15 14 14
12 12 12 12 12 13 12 12 13 13 13 13 13 13 13 13 13 13 14 14 14 14 14 14 13 13 13 13 13 13 13 13 13 13 13 14 14 14 14 14 13 13 13
12 11 11 11 11 11 11 12 12 12 13 13 13 13 13 13 13 13 14 14 14 14 14 13 13 13 13 13 13 12 12 12 12 12 12 13 13 13 13 13 13 13 13
11 11 11 11 11 10 10 11 11 12 12 12 13 13 13 13 13 13 14 14 14 14 13 13 12 13 13 12 12 12 11 11 11 11 12 12 12 12 12 12 13 13 13
11 11 11 11 11 11 10 11 11 11 11 12 12 13 13 13 13 13 13 14 14 14 13 12 12 13 12 12 12 11 11 11 11 11 11 11 11 11 12 12 12 12 12
11 11 10 11 11 10 11 11 11 11 11 11 12 12 13 13 13 13 13 13 14 14 13 12 12 12 12 12 12 11 11 10 9 9 10 10 11 11 11 11 11 11 11
11 10 10 10 10 10 10 10 10 10 11 11 11 12 12 13 13 13 13 13 13 13 13 13 13 12 12 12 11 11 10 10 10 9 10 10 10 10 10 10 10 10 10
10 10 10 10 10 10 10 10 10 10 11 11 11 11 12 12 12 13 13 13 13 13 12 12 12 12 12 11 11 11 10 10 10 9 10 10 9 9 9 9 9 9 9
9 9 9 9 9 9 10 10 10 10 10 10 10 11 11 11 12 13 13 12 12 12 11 11 11 11 11 11 11 11 10 10 10 9 9 10 9 9 9 9 9 8 8
8 8 9 9 9 9 9 9 10 10 10 10 10 10 11 11 12 12 12 12 12 12 11 11 11 11 11 11 11 11 11 11 10 9 9 10 9 9 8 8 8 8 8
Wind_Speed
6 5 4 4 5 5 3 3 4 4 3 2 5 5 5 6 8 11 14 20 23 23 23 26 28 28 27 26 25 25 25 25 25 25 25 24 24 24 24 23 23 23 22
5 5 4 4 3 4 4 4 5 4 4 3 4 5 5 6 8 10 12 15 19 20 22 25 28 29 28 27 27 26 25 26 26 26 25 26 26 26 25 25 25 24 24
5 5 4 3 3 4 4 3 3 3 3 3 4 5 5 6 7 9 11 13 14 16 19 23 25 27 28 28 28 27 26 27 27 27 27 27 27 27 26 26 25 25 25
6 4 3 2 2 2 2 2 2 2 2 2 3 4 5 6 7 8 9 11 12 13 15 19 23 26 28 29 29 27 27 28 28 28 28 27 28 27 27 28 26 25 26
6 4 4 3 2 2 1 1 1 2 2 3 4 5 6 7 8 9 9 10 12 13 13 16 20 25 28 29 28 27 28 30 30 29 29 29 29 28 28 28 27 26 26
7 5 4 3 2 1 1 1 0 1 2 3 4 4 5 7 7 8 10 9 10 14 14 15 16 18 25 27 27 28 30 30 30 29 29 29 30 29 28 28 27 25 25
7 5 4 3 3 3 3 2 2 1 1 1 1 3 5 6 7 7 7 7 10 11 12 13 13 14 15 21 26 27 29 30 30 29 28 29 31 30 28 27 26 24 23
6 6 6 5 4 3 1 1 1 1 0 1 2 1 4 5 4 4 4 5 7 6 8 9 11 12 13 13 16 22 26 27 27 28 28 29 31 30 27 27 26 25 25
6 6 7 6 5 4 2 1 0 1 1 0 2 2 1 3 4 4 4 5 5 4 5 6 7 10 12 12 13 17 24 25 27 27 26 28 31 29 27 27 27 28 28
7 7 8 8 6 4 4 2 2 2 2 1 1 2 3 4 2 4 5 4 6 6 6 5 7 7 11 12 14 19 22 23 26 27 27 27 29 29 27 26 26 27 27
6 7 8 8 7 5 5 4 3 3 2 3 3 3 3 3 4 3 5 5 6 5 6 7 6 7 8 11 11 16 20 21 23 25 26 25 24 23 21 21 24 25 24
3 4 6 7 7 6 6 5 5 4 3 4 4 4 4 3 3 3 4 5 6 5 6 5 5 6 6 7 11 14 17 18 18 19 19 18 14 12 11 11 14 16 18
3 5 4 5 6 6 7 6 5 5 4 5 6 5 4 5 4 4 4 5 5 4 4 4 4 4 3 2 3 9 11 13 12 12 12 11 10 9 7 5 3 4 6
4 6 6 3 4 6 7 7 5 6 5 6 7 6 5 5 5 5 5 4 5 4 3 5 3 2 2 3 6 6 6 11 14 15 16 17 15 13 11 9 8 6 5
5 7 8 8 5 5 7 7 6 7 6 6 7 8 6 6 6 6 6 5 4 3 3 4 3 2 4 6 7 6 7 13 17 18 18 17 16 16 15 14 13 13 13
5 6 7 8 9 8 8 7 7 8 8 7 6 7 7 6 6 5 5 5 6 5 4 3 2 1 4 7 9 8 10 15 16 18 19 18 17 17 17 16 16 16 16
6 7 7 7 7 8 8 7 8 9 9 9 8 8 9 8 6 5 5 4 5 5 5 4 3 3 4 9 9 9 10 10 13 18 19 19 18 18 18 18 17 17 17
7 7 7 7 7 7 7 7 8 8 9 9 9 9 9 7 7 6 5 6 5 5 5 5 4 3 4 10 10 9 6 9 11 16 18 19 19 19 19 19 18 17 18
8 7 7 7 8 8 8 8 7 7 7 8 8 9 9 9 8 6 6 6 5 5 6 6 5 3 4 7 10 9 9 9 10 15 17 18 20 20 20 20 20 19 19
9 9 9 8 8 8 9 10 9 8 7 6 7 8 9 9 9 8 7 7 6 6 6 6 6 7 6 8 10 10 9 8 8 10 12 15 18 18 18 19 20 20 20
10 10 10 9 9 8 9 10 9 9 8 7 7 8 9 11 12 10 7 6 6 5 4 6 8 7 8 10 10 7 11 10 9 6 9 7 7 8 10 16 19 19 19
10 10 10 10 10 10 12 14 11 8 8 8 9 8 9 10 13 14 12 10 8 6 6 6 6 10 10 10 9 12 13 13 7 4 6 6 5 7 5 9 15 17 18
10 10 10 9 10 13 17 17 16 10 8 8 8 8 7 8 11 9 10 8 6 6 6 6 9 10 11 12 13 12 10 8 6 7 6 5 4 4 3 8 13 14 15
8 8 8 7 8 12 17 18 18 10 7 7 7 8 9 9 10 11 9 6 6 6 6 5 7 9 12 13 12 11 11 9 8 6 4 4 3 3 3 4 7 9 10
7 7 6 7 8 11 16 17 16 6 6 6 5 7 10 12 16 15 11 9 7 5 8 12 13 15 17 17 15 12 11 12 9 5 2 4 3 3 2 1 1 4 6
7 7 7 8 9 10 14 17 15 6 6 5 4 5 11 15 17 17 12 11 10 7 8 10 12 14 14 14 12 10 11 12 10 5 4 4 5 4 3 1 0 2 2
Wind_Direction
220 221 224 224 222 212 200 200 202 222 246 241 233 228 229 233 238 233 238 247 254 254 246 233 225 223 222 222 222 223 223 220 215 213 212 210 208 206 203 202 203 203 205
206 221 227 213 197 178 179 179 186 198 213 204 196 197 216 233 241 243 244 253 261 262 253 242 234 229 226 224 225 226 225 223 219 216 215 213 211 210 208 207 207 206 207
191 201 203 202 193 181 181 179 188 188 205 211 218 221 229 238 245 244 246 249 255 260 257 247 238 232 231 232 230 228 225 223 221 219 217 216 214 212 210 212 211 209 208
182 169 180 217 210 187 186 193 197 203 223 217 228 235 238 247 255 257 258 255 253 256 255 249 241 236 235 238 238 234 230 226 223 221 219 217 216 213 212 215 214 212 211
191 176 195 217 223 210 223 246 237 211 247 254 242 237 237 241 248 253 252 253 252 250 251 254 249 243 241 243 243 240 237 232 226 223 221 219 218 215 213 216 214 211 212
198 189 201 199 167 141 82 68 229 214 233 255 270 269 258 249 246 242 243 247 248 247 243 242 245 249 248 246 245 242 240 237 231 227 224 220 218 216 213 214 214 213 213
185 184 192 170 137 135 149 141 132 119 241 218 302 311 295 269 255 253 244 240 244 245 241 237 235 237 246 246 244 241 241 239 234 230 227 223 219 216 212 211 212 215 219
182 180 178 175 164 155 148 89 111 119 194 120 122 356 327 326 322 293 284 263 258 250 242 235 231 227 230 236 239 240 241 241 237 231 229 228 224 217 211 209 209 216 224
185 174 178 173 177 170 177 193 228 165 200 324 139 157 205 276 305 299 299 302 311 291 255 240 227 222 221 224 231 239 242 239 235 232 231 232 228 222 214 210 209 213 218
191 183 182 180 180 172 178 201 218 199 181 235 281 204 197 198 248 304 305 303 315 310 296 268 244 231 224 224 227 231 237 234 230 229 230 232 229 225 223 219 218 219 221
211 200 192 186 180 177 183 188 194 208 198 205 218 229 227 219 208 229 292 312 320 301 296 280 257 243 230 221 222 228 229 228 227 227 227 230 229 226 228 228 231 230 228
294 260 222 197 185 178 183 194 198 204 220 231 231 223 217 218 209 215 262 296 301 296 300 287 273 258 242 225 226 228 227 227 227 227 226 225 224 216 215 220 229 233 235
345 329 276 214 189 185 185 186 196 216 223 229 236 234 223 222 218 215 243 270 280 293 294 295 284 277 249 215 230 223 223 214 204 196 182 163 144 136 140 152 186 221 238
326 334 342 297 219 192 193 194 203 217 221 229 236 228 225 239 232 223 224 243 276 288 287 281 295 303 102 101 100 111 128 139 132 130 128 126 126 128 127 121 110 105 103
310 329 331 321 289 242 222 207 210 218 220 227 233 231 231 242 240 236 228 220 228 263 285 281 290 37 108 109 106 103 113 119 121 120 119 120 121 118 112 104 96 91 87
278 294 301 305 300 280 250 226 219 222 223 228 222 227 236 242 243 237 225 214 208 217 247 261 266 114 128 118 113 115 117 116 116 117 116 114 111 107 102 97 90 85 81
277 278 279 282 292 294 282 253 233 223 224 229 227 229 239 241 237 228 212 198 198 201 235 247 216 144 128 127 118 114 114 111 113 112 113 112 110 106 101 96 91 87 84
271 269 272 278 284 293 302 292 270 248 231 230 230 228 238 241 231 221 209 202 198 199 211 231 196 155 133 138 126 116 107 107 109 111 113 115 112 108 104 101 98 94 90
265 269 262 261 268 275 281 284 284 274 250 239 235 229 232 232 235 226 213 206 208 210 213 217 187 149 133 139 125 111 108 106 105 112 110 109 108 106 104 102 99 94 92
266 269 262 250 250 259 266 267 265 266 261 254 247 240 234 227 227 221 210 210 212 215 214 207 178 159 150 142 133 130 123 115 112 113 106 107 104 100 102 102 100 97 95
256 259 264 258 248 249 257 254 250 250 249 252 255 249 244 235 224 206 198 205 203 198 189 184 170 155 153 153 146 139 134 122 108 115 117 111 102 93 94 100 102 103 100
253 254 257 259 258 259 256 252 246 245 248 251 258 257 248 233 211 199 196 194 189 176 174 170 165 159 159 154 141 142 139 135 132 153 125 109 102 102 90 100 108 105 100
235 242 248 252 257 257 253 251 248 238 243 250 256 253 243 216 189 179 178 170 159 146 154 164 160 154 156 153 143 140 139 130 120 143 121 93 79 93 77 109 110 104 101
203 214 226 237 257 262 252 245 244 237 241 254 261 246 221 204 193 175 160 148 135 124 121 119 132 133 141 140 135 134 133 117 108 114 105 104 84 68 46 71 113 112 103
211 213 218 229 246 259 254 241 235 223 231 247 267 260 226 204 192 171 155 147 134 120 107 109 112 120 127 132 138 139 139 139 138 135 124 108 121 94 61 37 120 129 112
227 232 238 237 243 252 250 236 222 207 218 233 256 271 231 205 184 171 160 156 150 143 126 113 111 119 130 139 145 151 154 153 147 145 166 125 146 134 117 265 216 140 133
Height
1514 1514 1513 1513 1514 1514 1515 1516 1517 1520 1521 1522 1523 1524 1524 1524 1525 1525 1525 1525 1526 1526 1527 1528 1529 1531 1532 1533 1534 1536 1537 1540 1542 1543 1545 1547 1549 1551 1553 1555 1557 1560 1562
1510 1510 1510 1510 1511 1510 1510 1511 1513 1515 1516 1517 1518 1519 1520 1521 1521 1521 1520 1520 1520 1521 1522 1523 1524 1526 1527 1528 1530 1531 1532 1535 1537 1539 1541 1543 1545 1547 1549 1551 1553 1556 1559
1508 1508 1507 1507 1507 1506 1507 1508 1509 1510 1511 1513 1513 1514 1515 1516 1517 1517 1516 1515 1515 1516 1517 1517 1518 1519 1521 1523 1525 1526 1528 1530 1532 1534 1536 1538 1541 1543 1545 1547 1549 1552 1555
1505 1505 1505 1504 1503 1503 1503 1504 1505 1506 1507 1508 1509 1510 1512 1513 1513 1512 1512 1511 1511 1511 1511 1512 1513 1514 1515 1517 1519 1521 1522 1525 1528 1529 1531 1534 1536 1539 1541 1543 1546 1548 1551
1504 1503 1502 1502 1501 1500 1500 1501 1501 1502 1503 1504 1505 1506 1507 1508 1508 1507 1507 1506 1506 1506 1506 1506 1507 1508 1509 1511 1513 1515 1517 1520 1523 1524 1526 1528 1531 1534 1536 1539 1542 1544 1547
1501 1501 1500 1499 1498 1498 1498 1498 1499 1499 1500 1501 1502 1503 1503 1503 1503 1502 1502 1502 1501 1500 1500 1501 1501 1501 1503 1504 1506 1508 1511 1514 1516 1518 1521 1523 1525 1528 1531 1534 1537 1540 1543
1498 1498 1498 1496 1495 1495 1496 1496 1496 1496 1497 1498 1499 1498 1499 1499 1498 1498 1498 1497 1496 1495 1495 1495 1495 1496 1497 1498 1501 1502 1504 1507 1509 1511 1514 1516 1520 1523 1526 1529 1533 1535 1538
1497 1495 1494 1494 1493 1493 1493 1493 1493 1493 1493 1495 1495 1495 1495 1495 1494 1494 1493 1493 1492 1492 1491 1490 1491 1491 1492 1494 1495 1497 1499 1501 1503 1505 1507 1510 1514 1517 1521 1524 1528 1530 1533
1495 1493 1492 1491 1491 1491 1490 1490 1491 1491 1491 1493 1493 1493 1493 1492 1490 1488 1489 1488 1488 1488 1487 1487 1487 1487 1487 1488 1489 1490 1491 1493 1495 1499 1502 1504 1507 1511 1515 1519 1522 1525 1528
1492 1491 1490 1489 1488 1488 1488 1488 1488 1489 1489 1490 1490 1490 1490 1490 1489 1485 1484 1484 1483 1483 1483 1483 1483 1483 1482 1482 1482 1483 1484 1485 1488 1492 1495 1498 1501 1505 1509 1513 1516 1518 1521
1489 1488 1487 1487 1486 1486 1486 1486 1486 1486 1487 1488 1488 1487 1486 1486 1486 1485 1480 1478 1478 1478 1478 1478 1478 1478 1478 1477 1477 1478 1478 1480 1483 1487 1490 1493 1496 1499 1502 1506 1509 1512 1514
1483 1483 1483 1483 1482 1482 1483 1484 1484 1483 1484 1484 1484 1484 1483 1482 1481 1480 1478 1475 1473 1473 1473 1474 1474 1474 1473 1473 1473 1473 1474 1476 1479 1482 1485 1488 1491 1494 1497 1500 1503 1506 1507
1476 1477 1477 1477 1478 1478 1479 1480 1481 1480 1480 1481 1481 1480 1479 1478 1476 1475 1474 1472 1470 1468 1468 1469 1469 1469 1469 1469 1469 1470 1471 1473 1475 1477 1480 1482 1485 1488 1492 1495 1498 1500 1501
1470 1470 1470 1470 1472 1474 1475 1476 1477 1477 1477 1477 1477 1476 1475 1474 1472 1471 1470 1469 1466 1464 1464 1464 1465 1465 1465 1465 1466 1467 1469 1471 1472 1474 1477 1479 1481 1484 1487 1490 1492 1494 1495
1464 1463 1463 1465 1467 1469 1470 1471 1471 1472 1472 1473 1473 1472 1470 1469 1468 1467 1465 1464 1464 1461 1460 1460 1461 1461 1461 1462 1463 1464 1466 1468 1470 1472 1475 1477 1479 1482 1484 1485 1487 1489 1490
1460 1459 1459 1459 1460 1462 1464 1465 1465 1466 1467 1468 1468 1467 1466 1465 1464 1462 1461 1460 1459 1458 1457 1456 1458 1458 1458 1459 1460 1462 1463 1465 1467 1469 1472 1475 1477 1479 1481 1482 1483 1485 1485
1454 1454 1454 1454 1454 1455 1456 1458 1459 1460 1461 1462 1462 1462 1461 1460 1459 1458 1457 1456 1455 1454 1452 1452 1453 1454 1455 1456 1458 1460 1461 1463 1465 1468 1471 1473 1475 1477 1478 1480 1481 1482 1484
1451 1449 1449 1448 1448 1448 1449 1450 1451 1453 1454 1455 1455 1456 1456 1455 1454 1453 1452 1450 1449 1448 1447 1447 1448 1450 1452 1454 1456 1459 1461 1463 1465 1468 1471 1473 1475 1477 1478 1479 1481 1482 1483
1446 1445 1445 1444 1442 1442 1442 1443 1444 1445 1446 1447 1448 1449 1449 1450 1449 1448 1447 1445 1444 1442 1441 1441 1443 1447 1449 1452 1454 1458 1461 1463 1465 1468 1471 1473 1475 1477 1479 1480 1481 1482 1484
1440 1440 1439 1438 1438 1437 1436 1437 1438 1439 1439 1440 1440 1441 1442 1443 1444 1443 1442 1440 1438 1436 1435 1436 1439 1442 1446 1449 1452 1456 1460 1463 1465 1468 1471 1474 1476 1478 1480 1481 1482 1484 1486
1434 1433 1433 1433 1433 1433 1432 1431 1432 1433 1433 1433 1433 1433 1434 1436 1437 1437 1436 1435 1433 1431 1430 1431 1434 1437 1441 1445 1449 1454 1458 1462 1465 1469 1472 1475 1477 1479 1481 1483 1484 1486 1488
1428 1427 1427 1427 1428 1428 1428 1428 1428 1428 1427 1426 1425 1425 1427 1429 1431 1431 1431 1430 1429 1427 1426 1428 1430 1433 1437 1442 1446 1451 1455 1459 1465 1471 1473 1476 1480 1481 1483 1485 1487 1489 1490
1420 1421 1421 1421 1421 1422 1422 1422 1422 1422 1421 1419 1418 1417 1418 1421 1424 1425 1426 1426 1424 1423 1424 1426 1427 1430 1434 1439 1443 1449 1454 1459 1463 1469 1474 1476 1481 1483 1486 1488 1489 1491 1492
1411 1412 1413 1413 1414 1414 1415 1415 1415 1415 1414 1413 1411 1410 1411 1414 1417 1420 1421 1422 1421 1421 1422 1424 1426 1429 1434 1439 1444 1449 1455 1461 1467 1472 1476 1478 1482 1485 1487 1489 1491 1492 1493
1402 1403 1403 1404 1404 1405 1406 1407 1408 1408 1407 1406 1405 1404 1405 1408 1411 1415 1417 1418 1419 1420 1421 1424 1427 1430 1435 1441 1447 1452 1458 1463 1469 1474 1479 1480 1484 1487 1489 1491 1492 1493 1494
1392 1393 1393 1393 1394 1394 1396 1398 1400 1400 1400 1400 1399 1398 1398 1401 1406 1409 1412 1415 1417 1419 1421 1424 1429 1434 1439 1445 1450 1455 1459 1463 1468 1474 1479 1481 1484 1487 1491 1493 1494 1495 1495